COSMOS 1275 DEB, 42200

Orbit data source: Space-Track

COSMOS 1275 DEB, 42200 is space debris in LEO originally from a launch on Thu, 04 Jun 1981 UTC launched from the Plesetsk Missile And Space Complex (PKMTR). Debris objects in space refer to the collection of defunct objects orbiting the Earth. Examples of debris include non-operational satellites, rocket bodies, and fragments generated from explosions, collisions, or faulty payload assembly.

Loading next visibility...
Identifier
42200, 1981-053TQ
Orbit
LEO
Country
Flag of CISCIS
Related business
Manufacturer
Unknown
Mission
Spacecraft
Bus & Motor
Unknown
Mass
Unknown
Launch date (UTC)
1981-06-04 (45 years ago)
Launch vehicle
Unknown
Launch site
Plesetsk Missile And Space Complex (PKMTR)
Object type
Payload
Rocket body
Debris
Shape & HBR
Unknown shape, 0.1 m
Radar Cross Section
Small (<0.1 m²)

Expand to show TLE details & history
Last TLE update: 5 days ago

TLE from 5 days ago
0 COSMOS 1275 DEB
1 42200U 81053TQ  26155.29673211  .00003257  00000-0  18068-2 0  9997
2 42200  82.9870 139.9670 0068687 191.0046 168.9631 14.09744000639927
Epoch: 2026-06-04T07:07Z
TLE epoch observation values (Epoch: 2026-06-04T07:07:17.654Z)
Latitude
-0.0001°
Longitude
140.4004°
Altitude
912.018 km
Speed
7.371 km/s
True Right ascension
09h 19m 52s
True Declination
0° 00' 00"
Sunlit
Object was in daylight at epoch
Visualization orbit readout
Latitude
Unknown
Longitude
Unknown
Altitude
Unknown
Speed
Unknown
Apparent Right ascension
Unknown
Apparent Declination
Unknown
Sunlit
N/A
Visualization observer readout
Local Sidereal Time
18:24:57
Azimuth
Unknown
Elevation
Unknown
Doppler factor
Unknown
Orbital elements
Apogee altitude
907.045 km
Perigee altitude
807.648 km
Semi-major axis
7,235.484 km
Eccentricity
0.00687
Inclination
82.987°
RAAN
139.967°
Arg. of periapsis
191.0046°
True anomaly
169.11252°
Mean anomaly
168.9631°
Eccentric anomaly
169.03794°
Mean motion
3.52648 °/min
Orbital period
102.08 mins
BSTAR
0.0018068
Loading maneuver chart data...
Computing Atmospheric mass density...

Documentation

Showing up to 5 results
|